SCP
0 0 0 0 0 0 0 0 0 0 0 0 0 0 0 0 0 0 0 0 0 0 0 0 0 0 0 0 0 0 0 0 0 0 0 0 0 0 0 0 0 0 0 0 0 0 0 0 0
0 0 0 0 0 0 0 0 0 0 0 0 0 0 0 0 0 0 0 0 0 0 0 0 0 0 0 0 0 0 0 0 0 0 0 0 0 0 0 0 0 0 0 0 0 0 0 0 0
0 0 0 0 0 0 0 0 0 0 0 0 0 0 0 0 0 0 0 0 0 0 0 0 0 0 0 0 0 0 0 0 0 0 0 0 0 0 0 0 0 0 0 0 0 0 0 0 0
0 0 0 0 0 0 0 0 0 0 0 0 0 0 0 0 0 0 0 0 0 0 0 0 0 0 0 0 0 0 0 0 0 0 0 0 0 0 0 0 0 0 0 0 0 0 0 0 0
0 0 0 0 0 0 0 0 0 0 0 0 0 0 0 0 0 0 0 0 0 0 0 0 0 0 0 0 0 0 0 0 0 0 0 0 0 0 0 0 0 0 0 0 0 0 0 0 0
0 0 0 0 0 0 0 0 0 0 0 0 0 0 0 0 0 0 0 0 0 0 0 0 0 0 0 0 0 0 0 0 0 0 0 0 0 0 0 0 0 0 0 0 0 0 0 0 0
0 0 0 0 0 0 0 0 0 0 0 0 0 0 0 0 0 0 0 0 0 0 0 0 0 0 0 0 0 0 0 0 0 0 0 0 0 0 0 0 0 0 0 0 0 0 0 0 0
0 0 0 0 0 0 0 0 0 0 0 0 0 0 0 0 0 0 0 0 0 0 0 0 0 0 0 0 0 0 0 0 0 0 0 0 0 0 0 0 0 0 0 0 0 0 0 0 0
0 0 0 0 0 0 0 0 0 0 0 0 0 0 0 0 0 0 0 0 0 0 0 0 0 0 0 0 0 0 0 0 0 0 0 0 0 0 0 0 0 0 0 0 0 0 0 0 0
0 0 0 0 0 0 0 0 0 0 0 0 0 0 0 0 0 0 0 0 0 0 0 0 0 0 0 0 0 0 0 0 0 0 0 0 0 0 0 0 0 0 0 0 0 0 0 0 0
0 0 0 0 0 0 0 0 0 0 0 0 0 0 0 0 0 0 0 0 0 0 0 0 0 0 0 0 0 0 0 0 0 0 0 0 0 0 0 0 0 0 0 0 0 0 0 0 0
0 0 0 0 0 0 0 0 0 0 0 0 0 0 0 0 0 0 0 0 0 0 0 0 0 0 0 0 0 0 0 0 0 0 0 0 0 0 0 0 0 0 0 0 0 0 0 0 0
0 0 0 0 0 0 0 0 0 0 0 0 0 0 0 0 0 0 0 0 0 0 0 0 0 0 0 0 0 0 0 0 0 0 0 0 0 0 0 0 0 0 0 0 0 0 0 0 0
0 0 0 0 0 0 0 0 0 0 0 0 0 0 0 0 0 0 0 0 0 0 0 0 0 0 0 0 0 0 0 0 0 0 0 0 0 0 0 0 0 0 0 0 0 0 0 0 0
0 0 0 0 0 0 0 0 0 0 0 0 0 0 0 0 0 0 0 0 0 0 0 0 0 0 0 0 0 0 0 0 0 0 0 0 0 0 0 0 0 0 0 0 0 0 0 0 0
0 0 0 0 0 0 0 0 0 0 0 0 0 0 0 0 0 0 0 0 0 0 0 0 0 0 0 0 0 0 0 0 0 0 0 0 0 0 0 0 0 0 0 0 0 0 0 0 0
0 0 0 0 0 0 0 0 0 0 0 0 0 0 0 0 0 0 0 0 0 0 0 0 0 0 0 0 0 0 0 0 0 0 0 0 0 0 0 0 0 0 0 0 0 0 0 0 0
0 0 0 0 0 0 0 0 0 0 0 0 0 0 0 0 0 0 0 0 0 0 0 0 0 0 0 0 0 0 0 0 0 0 0 0 0 0 0 0 0 0 0 0 0 0 0 0 0
0 0 0 0 0 0 0 0 0 0 0 0 0 0 0 0 0 0 0 0 0 0 0 0 0 0 0 0 0 0 0 0 0 0 0 0 0 0 0 0 0 0 0 0 0 0 0 0 0
0 0 0 0 0 0 0 0 0 0 0 0 0 0 0 0 0 0 0 0 0 0 0 0 0 0 0 0 0 0 0 0 0 0 0 0 0 0 0 0 0 0 0 0 0 0 0 0 0
0 0 0 0 0 0 0 0 0 0 0 0 0 0 0 0 0 0 0 0 0 0 0 0 0 0 0 0 0 0 0 0 0 0 0 0 0 0 0 0 0 0 0 0 0 0 0 0 0
0 0 0 0 0 0 0 0 0 0 0 0 0 0 0 0 0 0 0 0 0 0 0 0 0 0 0 0 0 0 0 0 0 0 0 0 0 0 0 0 0 0 0 0 0 0 0 0 0
0 0 0 0 0 0 0 0 0 0 0 0 0 0 0 0 0 0 0 0 0 0 0 0 0 0 0 0 0 0 0 0 0 0 0 0 0 0 0 0 0 0 0 0 0 0 0 0 0
0 0 0 0 0 0 0 0 0 0 0 0 0 0 0 0 0 0 0 0 0 0 0 0 0 0 0 0 0 0 0 0 0 0 0 0 0 0 0 0 0 0 0 0 0 0 0 0 0
0 0 0 0 0 0 0 0 0 0 0 0 0 0 0 0 0 0 0 0 0 0 0 0 0 0 0 0 0 0 0 0 0 0 0 0 0 0 0 0 0 0 0 0 0 0 0 0 0
0 0 0 0 0 0 0 0 0 0 0 0 0 0 0 0 0 0 0 0 0 0 0 0 0 0 0 0 0 0 0 0 0 0 0 0 0 0 0 0 0 0 0 0 0 0 0 0 0
0 0 0 0 0 0 0 0 0 0 0 0 0 0 0 0 0 0 0 0 0 0 0 0 0 0 0 0 0 0 0 0 0 0 0 0 0 0 0 0 0 0 0 0 0 0 0 0 0
0 0 0 0 0 0 0 0 0 0 0 0 0 0 0 0 0 0 0 0 0 0 0 0 0 0 0 0 0 0 0 0 0 0 0 0 0 0 0 0 0 0 0 0 0 0 0 0 0
0 0 0 0 0 0 0 0 0 0 0 0 0 0 0 0 0 0 0 0 0 0 0 0 0 0 0 0 0 0 0 0 0 0 0 0 0 0 0 0 0 0 0 0 0 0 0 0 0
0 0 0 0 0 0 0 0 0 0 0 0 0 0 0 0 0 0 0 0 0 0 0 0 0 0 0 0 0 0 0 0 0 0 0 0 0 0 0 0 0 0 0 0 0 0 0 0 0
Wind_Speed
2 1 2 2 1 4 8 6 5 5 6 7 7 6 7 8 7 7 4 3 4 4 5 6 7 8 8 8 8 9 9 9 9 9 9 9 9 9 9 9 9 10 9 9 9 9 9 8 8
1 1 2 1 2 6 7 6 7 7 7 6 6 6 8 8 7 6 4 4 4 5 5 7 8 7 8 8 8 9 9 9 9 10 10 9 10 10 10 10 11 11 10 10 10 9 9 8 8
0 1 1 1 4 6 7 6 8 8 6 4 5 6 6 6 5 5 5 4 4 5 6 8 7 7 7 8 8 9 9 9 10 11 11 10 10 11 10 11 10 11 11 11 10 9 9 9 9
2 1 1 4 10 8 7 7 6 7 6 5 5 7 7 7 5 5 5 4 5 5 6 8 6 7 7 8 8 9 9 10 11 11 11 11 11 11 10 10 11 11 11 11 10 9 9 9 9
0 1 5 7 9 8 6 5 5 5 5 6 6 8 8 6 6 6 5 5 5 6 6 8 7 7 7 8 8 9 10 11 11 11 11 11 10 10 10 10 11 11 11 11 11 10 11 11 10
1 2 5 8 9 7 6 6 6 7 7 6 7 8 7 6 6 6 6 6 6 6 6 7 8 8 8 9 9 9 10 11 11 11 11 10 11 11 10 10 10 11 11 11 11 11 11 11 11
3 3 6 9 9 7 6 5 5 6 7 6 4 6 7 5 4 5 6 6 6 6 6 6 6 7 7 8 9 9 9 10 10 10 10 10 10 10 10 10 10 10 10 11 11 12 11 11 11
1 4 8 7 8 7 6 5 5 4 6 5 3 5 5 4 4 5 5 6 6 6 6 6 6 6 5 7 9 8 9 9 9 9 9 7 7 8 8 9 9 9 10 11 11 11 11 11 10
1 4 6 6 6 7 7 6 5 4 6 6 5 6 5 6 6 5 5 5 6 5 5 5 5 6 5 6 6 6 7 7 5 6 6 2 4 6 7 11 9 9 9 10 10 9 9 8 9
2 4 7 5 6 7 7 6 5 5 5 5 6 6 7 8 6 5 4 4 5 5 5 4 5 5 6 5 4 4 4 5 4 5 5 4 5 5 6 9 8 8 7 8 8 6 4 3 5
5 6 7 6 6 6 7 5 4 4 4 3 5 7 8 7 5 4 3 3 4 4 4 4 4 5 5 4 4 3 3 3 4 5 5 4 4 3 3 3 4 4 4 4 5 3 3 4 4
7 7 5 6 5 5 5 5 4 3 3 3 4 7 7 6 5 3 2 2 3 3 4 4 4 4 4 4 4 3 3 3 3 4 5 3 3 3 3 2 3 2 2 3 3 2 4 4 5
7 6 6 6 6 5 5 4 3 3 3 4 6 7 6 5 4 3 2 2 2 2 3 3 3 3 3 4 3 3 3 3 4 3 3 4 3 3 3 3 2 3 3 2 2 3 4 4 4
6 7 6 5 5 4 4 3 2 3 4 5 6 6 5 4 3 3 2 1 2 2 2 3 2 3 3 3 3 3 3 3 3 3 3 4 3 2 2 3 3 3 3 2 2 3 3 3 3
7 6 5 3 3 3 3 2 2 3 4 5 5 5 4 3 3 2 2 1 1 1 2 3 2 2 2 3 3 2 2 3 2 3 3 4 3 3 2 2 3 3 2 3 2 3 2 3 3
5 4 4 3 2 2 4 2 3 3 4 4 4 4 4 3 2 2 1 1 1 1 2 3 2 1 2 2 2 2 2 2 2 2 3 3 3 3 2 2 2 2 2 2 2 2 2 2 2
5 4 3 3 2 3 4 2 2 3 4 3 3 3 3 3 2 1 1 1 1 2 2 3 2 2 2 2 1 2 2 2 2 2 2 3 3 3 3 2 2 2 2 2 2 2 2 2 2
4 3 3 3 2 3 4 3 2 3 4 4 3 3 3 2 1 1 1 2 2 2 2 2 3 1 2 1 1 1 2 2 2 2 2 3 3 3 3 2 2 2 1 1 1 2 2 2 1
2 3 3 2 1 3 4 4 4 3 4 4 4 4 3 3 2 1 1 2 3 3 2 2 2 1 1 1 0 0 1 1 1 2 2 2 3 3 3 2 2 1 1 1 1 1 2 1 1
4 4 4 2 1 3 3 5 3 2 4 3 3 3 3 3 2 1 2 2 2 3 3 2 2 1 1 0 0 0 0 1 1 1 1 2 3 2 2 2 1 1 1 1 1 1 0 1 0
4 5 4 3 1 4 4 5 5 3 3 3 3 3 3 3 3 3 3 2 2 3 3 2 2 2 1 1 0 1 1 0 1 1 1 2 2 2 2 2 2 2 1 0 0 0 0 0 0
4 3 5 5 5 3 4 5 3 4 3 2 2 3 3 3 3 3 3 3 2 2 2 3 2 2 1 2 1 1 0 0 1 1 1 1 2 2 2 2 2 2 1 1 0 0 0 1 1
2 2 4 5 6 6 5 7 2 3 3 2 2 2 2 2 3 2 2 2 2 2 2 2 2 2 2 2 1 1 0 1 1 1 1 2 1 2 2 2 1 1 1 1 1 0 1 1 1
2 3 3 4 5 7 4 6 3 1 3 2 1 1 1 1 1 1 1 2 2 2 2 2 2 2 2 2 2 1 1 1 1 1 1 1 1 1 2 2 1 1 1 1 1 1 1 1 1
5 5 4 5 5 3 1 5 3 1 2 2 2 1 0 1 1 1 1 2 2 2 2 2 2 2 2 2 2 2 1 1 1 1 1 1 1 1 1 1 2 1 1 1 1 2 2 1 1
5 6 5 4 4 2 4 6 1 2 2 2 1 1 0 1 1 0 1 2 2 2 1 1 2 2 3 3 2 1 1 1 1 1 1 1 1 1 1 1 1 1 1 1 1 1 1 1 2
4 4 4 6 5 6 5 3 3 1 1 1 1 1 1 1 1 0 0 1 1 2 2 2 2 2 3 3 2 2 2 1 1 1 1 1 1 1 1 1 1 1 1 1 0 1 1 1 1
3 2 4 6 6 6 5 5 2 2 0 0 0 0 1 2 1 1 1 1 1 1 1 1 2 2 2 2 2 1 1 1 1 1 0 1 1 1 1 1 1 1 1 1 0 0 1 1 0
4 4 4 5 6 6 5 1 2 1 0 1 1 1 1 1 2 2 2 1 0 1 1 1 1 1 1 2 2 2 1 1 1 1 0 1 1 1 1 1 1 1 1 1 0 1 1 1 1
5 5 6 6 6 6 6 2 4 1 1 1 1 1 1 1 1 1 2 1 1 1 0 0 0 0 0 1 2 2 1 1 1 1 1 1 1 1 1 1 1 1 1 1 1 1 1 1 2
Wind_Direction
212 211 239 246 177 95 83 83 90 91 73 64 62 65 63 49 37 64 77 68 56 60 63 78 58 56 56 58 60 60 62 66 68 70 73 75 73 71 69 68 71 78 87 92 87 82 80 78 76
321 267 246 259 140 112 92 93 90 77 89 93 79 74 72 66 56 80 91 76 71 67 61 66 61 58 56 59 60 61 61 64 67 69 73 76 75 71 67 67 70 76 84 87 85 82 79 78 77
188 287 326 78 86 89 102 99 95 94 93 87 86 63 53 60 65 78 79 94 86 75 70 72 55 59 61 63 61 62 64 66 68 70 74 76 74 70 67 67 71 74 78 80 79 78 77 78 78
234 181 115 98 91 77 92 104 111 114 95 72 92 84 75 51 55 78 96 97 89 81 76 79 57 62 63 64 64 64 66 71 71 70 72 70 69 68 65 67 70 72 73 74 74 73 73 73 74
204 123 117 106 94 88 86 91 109 106 98 90 93 95 88 62 66 88 101 93 85 78 75 80 64 61 62 65 67 66 68 71 69 67 69 68 68 70 69 69 69 69 71 70 69 68 72 72 72
129 136 124 112 104 101 98 98 105 94 96 94 97 103 91 85 85 90 89 81 76 74 74 86 85 68 64 64 66 66 69 71 71 68 65 66 68 70 70 72 69 69 71 71 70 71 72 72 71
95 107 111 115 117 112 98 93 91 95 92 84 88 99 108 101 93 104 97 85 76 73 72 73 85 97 96 77 65 66 68 71 71 71 69 68 69 71 71 73 70 72 75 76 76 75 74 73 71
69 122 121 120 125 113 108 105 86 78 85 85 83 93 112 123 127 121 106 93 81 73 68 67 69 68 81 92 79 72 70 68 70 70 67 72 89 89 83 83 72 72 76 76 77 78 76 73 70
160 136 123 122 128 119 123 120 102 88 104 98 83 72 91 125 136 125 109 96 84 72 69 67 68 69 67 71 89 97 94 77 89 92 82 87 83 83 90 71 68 70 74 76 77 78 79 84 82
112 117 106 105 114 119 121 115 123 127 114 114 110 101 117 129 131 121 107 97 85 77 69 64 67 67 70 68 77 76 80 78 63 65 67 65 70 69 70 88 75 73 79 87 82 89 110 102 90
93 103 110 110 113 119 122 112 112 128 107 110 129 131 132 134 130 116 98 83 73 71 69 60 67 71 74 77 69 64 69 73 63 56 62 64 71 83 74 87 105 96 98 83 96 113 72 71 68
105 96 108 115 121 127 123 125 110 85 72 75 115 133 140 145 135 120 97 86 84 75 72 68 64 71 72 76 75 71 68 68 64 53 55 57 60 60 65 66 62 67 70 65 61 60 71 70 77
109 108 106 112 115 112 113 117 110 97 86 105 122 137 145 146 138 128 122 114 96 90 86 74 63 69 78 78 74 76 65 56 66 53 44 52 50 51 60 70 68 63 66 71 56 63 66 61 63
109 117 116 123 124 121 118 118 143 117 121 129 134 142 149 149 141 137 133 119 89 88 91 91 84 78 79 82 79 74 66 64 57 53 43 47 51 48 40 58 61 57 53 49 50 64 69 65 61
130 127 126 136 150 148 156 144 155 135 145 147 150 148 150 158 159 163 156 155 118 111 108 98 88 87 79 75 67 68 62 61 53 48 36 44 43 43 43 45 54 53 58 61 48 60 63 72 78
163 173 163 144 172 179 226 180 144 158 178 171 167 161 164 174 183 177 179 168 137 135 123 117 109 100 90 83 79 65 59 53 48 50 34 32 35 38 42 47 52 48 52 55 56 51 68 75 71
185 190 183 166 187 201 227 225 162 185 200 198 196 187 183 178 182 187 183 181 153 145 135 126 119 109 101 96 91 65 63 56 46 46 34 20 24 27 39 32 38 53 55 52 50 50 42 63 63
180 190 206 205 173 213 226 231 197 198 215 220 210 206 202 203 203 207 195 172 152 147 145 128 121 109 110 114 85 78 62 54 45 42 28 20 13 20 35 26 30 49 65 65 68 77 62 50 58
186 216 226 232 169 232 236 248 239 215 219 224 219 214 213 208 202 193 188 175 164 160 161 132 129 128 129 142 157 116 51 45 48 35 30 20 11 16 31 3 21 19 44 64 75 77 89 70 45
207 224 231 202 165 252 252 261 253 214 214 229 236 229 227 210 189 184 196 186 178 174 176 162 156 152 134 203 193 181 71 31 45 25 25 12 4 7 11 5 9 15 13 53 72 89 24 93 274
220 244 250 251 252 223 254 244 218 195 205 217 240 246 242 232 218 205 202 196 190 187 187 178 164 158 150 148 173 138 124 108 76 14 9 357 354 357 2 358 359 348 341 23 18 106 199 261 225
238 262 256 241 246 246 257 270 219 214 205 217 232 240 241 235 231 218 206 201 209 201 192 185 169 163 149 145 133 133 161 295 338 334 344 346 354 353 350 351 347 350 352 335 320 40 262 271 244
294 302 239 242 254 258 241 260 237 196 231 254 260 260 249 237 223 215 211 203 204 190 179 187 170 153 142 139 135 169 327 301 313 326 341 337 347 342 346 343 337 347 344 313 327 270 249 242 266
180 193 193 217 240 247 242 253 255 200 272 294 285 270 242 221 211 218 200 184 171 151 157 169 172 157 151 160 170 178 198 266 326 333 333 322 338 323 339 337 322 318 328 309 269 239 223 227 234
224 240 231 220 221 238 199 252 261 33 352 311 307 317 32 93 123 171 183 184 161 144 159 170 177 174 165 174 192 197 206 236 252 293 307 318 324 321 326 330 327 336 330 326 273 229 226 217 224
230 252 269 275 265 254 223 241 154 71 10 343 325 319 60 72 79 99 182 181 162 148 161 185 188 192 180 184 197 214 214 233 271 282 293 297 310 316 328 324 330 335 333 340 307 259 230 229 220
226 237 284 280 271 265 232 214 196 117 32 14 10 11 29 34 66 77 132 170 163 173 191 215 203 197 193 192 195 206 214 219 253 274 299 314 320 326 341 337 350 358 337 316 293 271 250 260 244
295 248 225 244 259 257 247 243 233 179 241 252 262 22 44 40 32 49 61 126 155 186 206 228 234 211 199 198 193 196 206 220 244 250 297 328 350 357 348 353 358 18 359 342 341 315 296 251 234
193 210 240 251 264 273 270 241 73 35 30 301 296 310 20 18 21 25 35 27 139 155 176 214 216 217 203 201 197 192 191 214 209 226 268 303 329 334 349 355 8 9 11 21 17 260 261 263 229
251 245 241 255 248 258 274 269 96 76 20 307 305 334 8 24 35 33 34 35 48 89 127 230 211 203 229 210 197 207 192 196 208 204 224 278 305 337 348 360 15 19 359 8 2 321 287 282 260